Meteo pe oră la Almudevar

Astăzi, 20 Ianuarie, Miercuri

Timp Temperatura Precipitaţii Vânt Presiune Umiditate
00:00 +3°C° 0 mm 3 m/s 724 mmHg 75%
01:00 +3°C° 0 mm 3 m/s 723 mmHg 75%
02:00 +2°C° 0 mm 3 m/s 722 mmHg 75%
03:00 +2°C° 0 mm 3 m/s 721 mmHg 75%
04:00 +2°C° 0 mm 3 m/s 721 mmHg 74%
05:00 +2°C° 0 mm 3 m/s 721 mmHg 74%
06:00 +2°C° 0 mm 3 m/s 721 mmHg 73%
07:00 +3°C° 0 mm 3 m/s 720 mmHg 71%
08:00 +3°C° 0 mm 3 m/s 720 mmHg 70%
09:00 +4°C° 0 mm 3 m/s 720 mmHg 68%
10:00 +5°C° 0.1 mm 4 m/s 719 mmHg 67%
11:00 +6°C° 0.1 mm 4 m/s 719 mmHg 66%
12:00 +7°C° 0.1 mm 5 m/s 719 mmHg 65%
13:00 +7°C° 0 mm 5 m/s 718 mmHg 66%
14:00 +7°C° 0 mm 5 m/s 717 mmHg 67%
15:00 +7°C° 0 mm 5 m/s 717 mmHg 68%
16:00 +6°C° 0.1 mm 4 m/s 717 mmHg 71%
17:00 +6°C° 0.1 mm 4 m/s 717 mmHg 74%
18:00 +6°C° 0.1 mm 4 m/s 717 mmHg 77%
19:00 +5°C° 0.4 mm 4 m/s 717 mmHg 81%
20:00 +5°C° 0.4 mm 3 m/s 717 mmHg 85%
21:00 +5°C° 0.4 mm 3 m/s 717 mmHg 89%
22:00 +5°C° 0.1 mm 3 m/s 717 mmHg 89%
23:00 +5°C° 0.1 mm 3 m/s 717 mmHg 90%

Mâine, 21 Ianuarie, Joi

Timp Temperatura Precipitaţii Vânt Presiune Umiditate
00:00 +5°C° 0.1 mm 3 m/s 718 mmHg 91%
01:00 +6°C° 0 mm 2 m/s 718 mmHg 91%
02:00 +6°C° 0 mm 2 m/s 718 mmHg 91%
03:00 +6°C° 0 mm 2 m/s 718 mmHg 91%
04:00 +6°C° 0 mm 2 m/s 718 mmHg 91%
05:00 +5°C° 0 mm 2 m/s 718 mmHg 91%
06:00 +5°C° 0 mm 2 m/s 718 mmHg 91%
07:00 +6°C° 0 mm 2 m/s 719 mmHg 89%
08:00 +8°C° 0 mm 1 m/s 719 mmHg 87%
09:00 +8°C° 0 mm 1 m/s 719 mmHg 85%
10:00 +9°C° 0 mm 2 m/s 719 mmHg 79%
11:00 +10°C° 0 mm 2 m/s 719 mmHg 73%
12:00 +11°C° 0 mm 3 m/s 719 mmHg 67%
13:00 +12°C° 0 mm 3 m/s 718 mmHg 67%
14:00 +12°C° 0 mm 4 m/s 718 mmHg 68%
15:00 +12°C° 0 mm 4 m/s 717 mmHg 68%
16:00 +10°C° 0.1 mm 5 m/s 717 mmHg 70%
17:00 +10°C° 0.1 mm 5 m/s 717 mmHg 73%
18:00 +9°C° 0.1 mm 5 m/s 717 mmHg 75%
19:00 +9°C° 0.1 mm 5 m/s 716 mmHg 77%
20:00 +10°C° 0.1 mm 4 m/s 716 mmHg 78%
21:00 +10°C° 0.1 mm 3 m/s 716 mmHg 79%
22:00 +10°C° 0 mm 3 m/s 716 mmHg 80%
23:00 +10°C° 0 mm 3 m/s 716 mmHg 81%

Poimâine, 22 Ianuarie, Vineri

Timp Temperatura Precipitaţii Vânt Presiune Umiditate
00:00 +9°C° 0 mm 3 m/s 716 mmHg 82%
01:00 +9°C° 0 mm 3 m/s 716 mmHg 79%
02:00 +9°C° 0 mm 3 m/s 716 mmHg 77%
03:00 +8°C° 0 mm 3 m/s 716 mmHg 75%
04:00 +8°C° 0 mm 3 m/s 715 mmHg 76%
05:00 +8°C° 0 mm 2 m/s 714 mmHg 77%
06:00 +8°C° 0 mm 1 m/s 714 mmHg 78%
07:00 +8°C° 1 mm 2 m/s 713 mmHg 81%
08:00 +8°C° 1 mm 3 m/s 712 mmHg 84%
09:00 +7°C° 1 mm 4 m/s 711 mmHg 86%
10:00 +8°C° 0.3 mm 7 m/s 712 mmHg 78%
11:00 +7°C° 0.3 mm 9 m/s 712 mmHg 70%
12:00 +8°C° 0.3 mm 11 m/s 712 mmHg 62%
13:00 +7°C° 0.1 mm 11 m/s 713 mmHg 65%
14:00 +7°C° 0.1 mm 10 m/s 713 mmHg 68%
15:00 +6°C° 0.1 mm 9 m/s 713 mmHg 71%
16:00 +5°C° 0 mm 8 m/s 714 mmHg 73%
17:00 +4°C° 0 mm 6 m/s 714 mmHg 75%
18:00 +5°C° 0 mm 5 m/s 715 mmHg 78%
19:00 +4°C° 0 mm 4 m/s 715 mmHg 79%
20:00 +4°C° 0 mm 4 m/s 715 mmHg 80%
21:00 +4°C° 0 mm 3 m/s 715 mmHg 82%
22:00 +4°C° 0 mm 3 m/s 716 mmHg 81%
23:00 +4°C° 0 mm 4 m/s 716 mmHg 80%

23 Ianuarie, Sâmbătă

Timp Temperatura Precipitaţii Vânt Presiune Umiditate
00:00 +4°C° 0 mm 4 m/s 716 mmHg 79%
01:00 +4°C° 0 mm 4 m/s 716 mmHg 80%
02:00 +4°C° 0 mm 4 m/s 716 mmHg 80%
03:00 +4°C° 0 mm 4 m/s 716 mmHg 81%
04:00 +4°C° 0.1 mm 4 m/s 716 mmHg 80%
05:00 +4°C° 0.1 mm 4 m/s 716 mmHg 80%
06:00 +3°C° 0.1 mm 4 m/s 716 mmHg 79%
07:00 +3°C° 0.2 mm 5 m/s 716 mmHg 77%
08:00 +3°C° 0.2 mm 7 m/s 717 mmHg 74%
09:00 +2°C° 0.2 mm 8 m/s 717 mmHg 72%
10:00 +3°C° 0 mm 9 m/s 718 mmHg 66%
11:00 +5°C° 0 mm 10 m/s 718 mmHg 60%
12:00 +6°C° 0 mm 11 m/s 718 mmHg 53%
13:00 +6°C° 0 mm 11 m/s 718 mmHg 53%
14:00 +6°C° 0 mm 10 m/s 718 mmHg 52%
15:00 +6°C° 0 mm 9 m/s 719 mmHg 51%
16:00 +5°C° 0 mm 7 m/s 719 mmHg 56%
17:00 +5°C° 0 mm 5 m/s 719 mmHg 61%
18:00 +3°C° 0 mm 3 m/s 719 mmHg 67%
19:00 +4°C° 0 mm 2 m/s 719 mmHg 67%
20:00 +4°C° 0 mm 2 m/s 719 mmHg 67%
21:00 +5°C° 0 mm 1 m/s 718 mmHg 68%
22:00 +5°C° 0.5 mm 1 m/s 717 mmHg 75%
23:00 +4°C° 0.5 mm 2 m/s 716 mmHg 82%

24 Ianuarie, Duminică

Timp Temperatura Precipitaţii Vânt Presiune Umiditate
00:00 +3°C° 0.5 mm 2 m/s 715 mmHg 89%
01:00 +2°C° 2.5 mm 3 m/s 714 mmHg 92%
02:00 +1°C° 2.5 mm 4 m/s 713 mmHg 94%
03:00 +1°C° 2.5 mm 5 m/s 711 mmHg 96%
04:00 +1°C° 1.9 mm 5 m/s 712 mmHg 95%
05:00 +1°C° 1.9 mm 4 m/s 712 mmHg 95%
06:00 +1°C° 1.9 mm 4 m/s 713 mmHg 94%
07:00 +2°C° 0 mm 6 m/s 714 mmHg 90%
08:00 +1°C° 0 mm 8 m/s 716 mmHg 85%
09:00 +2°C° 0 mm 9 m/s 717 mmHg 81%
10:00 +3°C° 0 mm 10 m/s 717 mmHg 78%
11:00 +3°C° 0 mm 10 m/s 718 mmHg 76%
12:00 +4°C° 0 mm 11 m/s 718 mmHg 73%
13:00 +5°C° 0 mm 10 m/s 718 mmHg 71%
14:00 +5°C° 0 mm 10 m/s 719 mmHg 69%
15:00 +5°C° 0 mm 9 m/s 719 mmHg 68%
16:00 +3°C° 0 mm 9 m/s 719 mmHg 72%
17:00 +2°C° 0 mm 8 m/s 720 mmHg 76%
18:00 +1°C° 0 mm 8 m/s 720 mmHg 80%
19:00 +2°C° 0.1 mm 7 m/s 721 mmHg 81%
20:00 +2°C° 0.1 mm 7 m/s 721 mmHg 82%
21:00 +2°C° 0.1 mm 7 m/s 722 mmHg 83%
22:00 +2°C° 0 mm 7 m/s 722 mmHg 84%
23:00 0°C° 0 mm 7 m/s 722 mmHg 86%

25 Ianuarie, Luni

Timp Temperatura Precipitaţii Vânt Presiune Umiditate
00:00 0°C° 0 mm 8 m/s 722 mmHg 87%
01:00 0°C° 0 mm 8 m/s 723 mmHg 87%
02:00 0°C° 0 mm 7 m/s 723 mmHg 87%
03:00 0°C° 0 mm 7 m/s 723 mmHg 87%
04:00 0°C° 0 mm 7 m/s 723 mmHg 88%
05:00 +1°C° 0 mm 6 m/s 724 mmHg 88%
06:00 +1°C° 0 mm 6 m/s 724 mmHg 89%
07:00 +1°C° 0 mm 6 m/s 724 mmHg 87%
08:00 +2°C° 0 mm 6 m/s 725 mmHg 85%
09:00 +2°C° 0 mm 6 m/s 726 mmHg 83%
10:00 +4°C° 0 mm 6 m/s 726 mmHg 78%
11:00 +5°C° 0 mm 7 m/s 726 mmHg 73%
12:00 +6°C° 0 mm 7 m/s 726 mmHg 68%
13:00 +6°C° 0 mm 7 m/s 725 mmHg 68%
14:00 +6°C° 0 mm 7 m/s 725 mmHg 67%
15:00 +6°C° 0 mm 7 m/s 725 mmHg 66%
16:00 +5°C° 0 mm 7 m/s 725 mmHg 70%
17:00 +4°C° 0 mm 6 m/s 725 mmHg 73%
18:00 +3°C° 0 mm 5 m/s 726 mmHg 77%
19:00 +3°C° 0 mm 5 m/s 726 mmHg 78%
20:00 +2°C° 0 mm 5 m/s 727 mmHg 79%
21:00 +2°C° 0 mm 5 m/s 727 mmHg 79%
22:00 +2°C° 0 mm 5 m/s 727 mmHg 80%
23:00 +2°C° 0 mm 6 m/s 727 mmHg 80%
Arată mai mult

Formular de consimțământ

Meteoprog și furnizorii noștri de servicii pot stoca și accesa date personale, precum cookies, identificatori de dispozitiv sau alte tehnologii similare pe dispozitivul dumneavoastră și procesa astfel de date pentru a personaliza conținutul și reclamele, dar și pentru a oferi caracteristici de social media și pentru a analiza traficul.

  • Stocarea și/sau accesarea informațiilor pe dispozitivul dumneavoastră

    Cookies, identificatori de dispozitiv sau alte informații pot fi stocate sau accesate pe dispozitiv în scopurile indicate mai sus.

  • Reclame și conținut personalizat, evaluarea reclamelor și a conținutului, informații despre audiențe și dezvoltarea produselor

    Reclamele și conținutul pot fi personalizate pe baza unui profil. Pot fi adăugate date suplimentare pentru a personaliza mai bine reclamele și conținutul. Performanța reclamelor și conținutului poate fi măsurată. Pot fi obținute informații despre utilizatorii care au văzut reclamele și conținutul. Aceste date pot fi utilizate pentru a dezvolta sau îmbunătăți experiența utilizatorilor, sistemele și software-ul.

Dând clic pe ‘Sunt de acord’, permiteți utilizarea cookie-urilor menționate, a identificatorilor de dispozitiv, balizelor web sau altor tehnologii similare. Setările pot fi modificate din browser-ul dispozitivului dumneavoastră.

În anumite scopuri, interesele legitime pot prima asupra consimțământului. Puteți citi mai multe informații în acest sens în Politica privind Confidențialitatea Datelor și Cookie.